ONEWEB-0223 (48768 NORAD) Tracking and Keplerian Element Data

This shows tracking and keplerian element data for the satellite.

Feedback or suggestion? Click here.




ElementValue
Catalog48768
NameONEWEB-0223
Epoch Orbit203
Epoch Day170.58334491
Epoch Year2021
RAAN268.8343
Inclination87.4055
Eccentricity0.0011492
Argument of Perigee161.7034
Mean Anonmoly151.2706
Mean Motion15.39471613
Decay Rate-0.00875872
L11 48768U 21045B 21170.58334491 -.00875872 00000-0 -24209-1 0 9990
L22 48768 87.4055 268.8343 0011492 161.7034 151.2706 15.39471613 2034

Live tracking and technical data element details for ONEWEB-0223 (NORAD 48768). ONEWEB-0223 can be tracked NOW for your location showing map with azimuth and elevation plus other details from your city location.

Track the satellite on the map from your city or location and see movement details for azimuth, elevation, latitude, longitude, range, height, and movement on the map or in text.







IsCatalogInMostPopularTable: catalog: 48768, numindb: 3
Update: records affected: 1



GetName: 48768 ONEWEB-0223

Hit Count: updated at: Mon, 21 Jun 2021 03:41:09 GMT